EW9353 Weather Reports


time (UTC)temp
C
wind
direction
speed
KPH
gust
KPH
rain 1hr
cm
rain 24hr
cm
rain mn
cm
humidity
%
barometer
mb
20180219041543 8 58 8.0 30.6 0.00 0.00 0.00 70 1021.4
20180219040041 8 27 11.3 30.6 0.00 0.00 0.00 69 1021.5
20180219034538 8 45 11.3 30.6 0.00 0.00 0.00 69 1021.4
20180219033036 8 51 9.7 30.6 0.00 0.00 0.00 70 1021.5
20180219031536 8 44 9.7 30.6 0.00 0.00 0.00 70 1021.7
20180219030036 8 59 9.7 30.6 0.00 0.00 0.00 71 1021.7
20180219024532 8 42 9.7 30.6 0.00 0.00 0.00 70 1021.7
20180219023030 8 27 9.7 30.6 0.00 0.00 0.00 70 1021.8
20180219021528 9 22 9.7 30.6 0.00 0.00 0.00 69 1021.8
20180219020028 9 44 8.0 30.6 0.00 0.00 0.00 69 1021.9
20180219014524 9 45 8.0 30.6 0.00 0.00 0.00 69 1022.2
20180219013023 9 34 11.3 30.6 0.00 0.00 0.00 68 1022.3
20180219011523 10 44 12.9 30.6 0.00 0.00 0.00 66 1022.4
20180219010024 9 29 11.3 30.6 0.00 0.00 0.00 68 1022.3
20180219004519 10 13 12.9 30.6 0.00 0.00 0.00 66 1022.5
20180219003017 12 59 8.0 30.6 0.00 0.00 0.00 56 1022.4
20180219001517 12 94 16.1 29.0 0.00 0.00 0.00 55 1022.2
20180219000009 12 74 12.9 29.0 0.00 0.00 0.00 56 1022.6
20180218234512 10 71 9.7 24.1 0.00 0.00 0.00 65 1022.7
20180218233010 9 48 9.7 24.1 0.00 0.00 0.00 67 1022.9
20180218231510 9 40 9.7 24.1 0.00 0.00 0.00 67 1023.1
20180218230006 10 44 9.7 24.1 0.00 0.00 0.00 64 1023.2
20180218224508 10 40 9.7 24.1 0.00 0.00 0.00 63 1023.2
20180218223006 10 57 9.7 24.1 0.00 0.00 0.00 63 1023.4
20180218221508 10 27 12.9 24.1 0.00 0.00 0.00 63 1023.2
20180218220007 9 55 9.7 24.1 0.00 0.00 0.00 64 1023.4
20180218214506 10 52 11.3 24.1 0.00 0.00 0.00 63 1023.5
20180218213004 10 48 12.9 24.1 0.00 0.00 0.00 61 1023.5
20180218211504 10 32 11.3 24.1 0.00 0.00 0.00 60 1023.3
20180218210003 11 36 11.3 24.1 0.00 0.00 0.00 58 1023.3
20180218204503 11 14 11.3 24.1 0.00 0.00 0.00 57 1023.4
20180218203003 11 22 12.9 20.9 0.00 0.00 0.00 58 1023.4
20180218201504 10 35 11.3 19.3 0.00 0.00 0.00 59 1023.4
20180218200004 10 55 8.0 19.3 0.00 0.00 0.00 61 1023.4
20180218194502 9 71 3.2 19.3 0.00 0.00 0.00 62 1023.5
20180218193003 10 42 8.0 19.3 0.00 0.00 0.00 62 1023.5
20180218191501 10 46 6.4 19.3 0.00 0.00 0.00 61 1023.5
20180218190002 10 53 6.4 19.3 0.00 0.00 0.00 60 1023.5
20180218184500 10 58 8.0 19.3 0.00 0.00 0.00 60 1023.5
20180218183000 10 55 8.0 19.3 0.00 0.00 0.00 59 1023.5
20180218181500 10 48 8.0 19.3 0.00 0.00 0.00 58 1023.2
20180218180001 11 31 9.7 27.4 0.00 0.00 0.00 57 1023.1
20180218174459 11 53 11.3 27.4 0.00 0.00 0.00 56 1023.1
20180218172959 11 5 9.7 27.4 0.00 0.00 0.00 56 1023.1
20180218171457 12 57 12.9 27.4 0.00 0.00 0.00 54 1023.0
20180218165958 12 61 14.5 27.4 0.00 0.00 0.00 54 1022.9
20180218164500 12 59 12.9 29.0 0.00 0.00 0.00 53 1022.8
20180218162956 13 33 17.7 30.6 0.00 0.00 0.00 52 1022.9
20180218161455 13 52 14.5 30.6 0.00 0.00 0.00 51 1022.8
20180218155955 13 59 16.1 30.6 0.00 0.00 0.00 50 1022.8
20180218154455 13 44 12.9 30.6 0.00 0.00 0.00 51 1022.9
20180218152953 13 55 16.1 29.0 0.00 0.00 0.00 49 1022.8
20180218151451 13 32 14.5 29.0 0.00 0.00 0.00 48 1022.9
20180218145949 13 47 16.1 29.0 0.00 0.00 0.00 47 1023.0
20180218144448 13 5 17.7 32.2 0.00 0.00 0.00 49 1023.1
20180218142945 13 33 16.1 30.6 0.00 0.00 0.00 48 1023.3
20180218141446 13 17 17.7 30.6 0.00 0.00 0.00 50 1023.4
20180218135943 13 46 17.7 30.6 0.00 0.00 0.00 52 1023.8
20180218134438 12 30 16.1 30.6 0.00 0.00 0.00 51 1024.0
20180218132932 12 5 16.1 30.6 0.00 0.00 0.00 53 1024.2
20180218131429 11 5 17.7 30.6 0.00 0.00 0.00 54 1024.5
20180218125926 11 55 16.1 30.6 0.00 0.00 0.00 54 1024.7
20180218124425 11 33 19.3 33.8 0.00 0.00 0.00 56 1025.0
20180218122920 11 5 19.3 33.8 0.00 0.00 0.00 58 1025.3
20180218121416 10 20 20.9 33.8 0.00 0.00 0.00 60 1025.7
20180218115913 10 5 14.5 33.8 0.00 0.00 0.00 61 1025.7
20180218114411 10 28 16.1 33.8 0.00 0.00 0.00 61 1025.7
20180218112904 9 67 16.1 33.8 0.00 0.00 0.00 63 1026.0
20180218111359 8 27 12.9 33.8 0.00 0.00 0.00 65 1026.1
20180218105857 8 52 16.1 33.8 0.00 0.00 0.00 65 1025.9
20180218104355 7 63 17.7 33.8 0.00 0.00 0.00 66 1025.9
20180218102849 7 59 12.9 32.2 0.00 0.00 0.00 68 1025.9
20180218101345 7 28 9.7 32.2 0.00 0.00 0.00 67 1025.9
20180218095842 6 36 11.3 32.2 0.00 0.00 0.00 70 1026.0
20180218094340 5 65 11.3 32.2 0.00 0.00 0.00 74 1026.3
20180218092839 5 26 16.1 32.2 0.00 0.00 0.00 74 1026.0
20180218091338 4 27 12.9 32.2 0.00 0.00 0.00 76 1025.9
20180218085838 3 63 14.5 32.2 0.00 0.00 0.00 76 1026.0
20180218084335 4 67 11.3 32.2 0.00 0.00 0.00 75 1025.9
20180218082838 3 53 14.5 32.2 0.00 0.00 0.00 76 1025.7
20180218081332 3 40 11.3 32.2 0.00 0.00 0.00 78 1025.7
20180218075826 2 35 14.5 32.2 0.00 0.00 0.00 81 1025.4
20180218074327 2 11 17.7 32.2 0.00 0.00 0.00 81 1025.2
20180218072822 2 360 16.1 32.2 0.00 0.00 0.00 81 1025.2
20180218071322 2 47 9.7 32.2 0.00 0.00 0.00 80 1025.2
20180218065820 3 68 9.7 32.2 0.00 0.00 0.00 80 1025.1
20180218064317 3 67 14.5 32.2 0.00 0.00 0.00 80 1025.2
20180218062814 3 37 16.1 32.2 0.00 0.00 0.00 79 1024.9
20180218061315 3 65 14.5 32.2 0.00 0.00 0.00 79 1025.2
20180218055813 3 63 14.5 32.2 0.00 0.00 0.00 80 1025.3
20180218054307 3 53 11.3 32.2 0.00 0.00 0.00 79 1025.4
20180218052807 3 52 14.5 32.2 0.00 0.00 0.00 79 1025.6
20180218051303 3 35 11.3 32.2 0.00 0.00 0.00 79 1025.6
20180218045802 4 84 11.3 32.2 0.00 0.00 0.00 78 1025.6
20180218044300 4 63 8.0 27.4 0.00 0.00 0.00 78 1025.6
20180218042800 5 80 11.3 27.4 0.00 0.00 0.00 77 1025.6